Mount Shasta, CA

4:50 AM PDT on August 24, 2016 (GMT -0700)
Mount Shasta

Weather History for KMHS - October, 2012

Change the Weather History Date:

Saturday, October 27, 2012

  Actual Average Record
Temperature  
Mean Temperature 55 °F 47 °F  
Max Temperature 69 °F 60 °F 80 °F (1952)
Min Temperature 40 °F 34 °F 20 °F (1919)
Degree Days  
Heating Degree Days 10 18  
Month to date heating degree days 302 352  
Since 1 July heating degree days 347 589  
Cooling Degree Days 0 0  
Month to date cooling degree days 4 0  
Year to date cooling degree days 392 287  
Growing Degree Days 5 (Base 50)    
Moisture  
Dew Point 41 °F    
Average Humidity 67    
Maximum Humidity 89    
Minimum Humidity 44    
Precipitation  
Precipitation 0.00 in 0.12 in 2.16 in (1981)
Month to date precipitation 0.71 1.78  
Year to date precipitation 25.27 29.78  
Sea Level Pressure  
Sea Level Pressure 30.19 in    
Wind  
Wind Speed 2 mph (NW)    
Max Wind Speed 10 mph    
Max Gust Speed 20 mph    
Visibility 10 miles    
Events      
T = Trace of Precipitation, MM = Missing Value Source: NWS Daily Summary

Daily Weather History Graph

Daily Weather History Graph

Search for Another Location

Airport or City:

Trip Planner

Search our weather history database for the weather conditions in past years. The results will help you decide how hot, cold, wet, or windy it might be!

Date:

Astronomy

Oct. 27, 2012 Rise Set
Actual Time 7:35 AM PDT 6:10 PM PDT
Civil Twilight 7:06 AM PDT 6:38 PM PDT
Nautical Twilight 6:34 AM PDT 7:10 PM PDT
Astronomical Twilight 6:02 AM PDT 7:42 PM PDT
Moon 4:59 PM PDT (10/27) 5:34 AM PDT (10/27)
Length of Visible Light 11h 31m
Length of Day
10h 34m
Waxing Gibbous, 96% of the Moon is Illuminated
Oct 27
Waxing Gibbous
Oct 29
Full
Nov 6
Last Quarter
Nov 13
New
Nov 20
First Quarter

Hourly Weather History & Observations

Time (PDT) Temp. Dew Point Humidity Pressure Visibility Wind Dir Wind Speed Gust Speed Precip Events Conditions
12:56 AM 48.0 °F 37.9 °F 68% 30.22 in 10.0 mi Calm Calm - N/A   Scattered Clouds
1:56 AM 46.0 °F 37.0 °F 71% 30.22 in 10.0 mi Calm Calm - N/A   Mostly Cloudy
2:56 AM 44.1 °F 37.0 °F 76% 30.23 in 10.0 mi Calm Calm - N/A   Scattered Clouds
3:56 AM 48.0 °F 37.0 °F 66% 30.21 in 10.0 mi Calm Calm - N/A   Overcast
4:56 AM 44.1 °F 37.0 °F 76% 30.22 in 10.0 mi Calm Calm - N/A   Partly Cloudy
5:56 AM 45.0 °F 37.9 °F 76% 30.22 in 10.0 mi Calm Calm - N/A   Scattered Clouds
6:56 AM 41.0 °F 36.0 °F 82% 30.23 in 10.0 mi Calm Calm - N/A   Partly Cloudy
7:56 AM 46.0 °F 39.0 °F 76% 30.23 in 10.0 mi Calm Calm - N/A   Overcast
8:56 AM 50.0 °F 39.9 °F 68% 30.22 in 10.0 mi Calm Calm - N/A   Scattered Clouds
9:56 AM 53.1 °F 39.9 °F 61% 30.22 in 10.0 mi Calm Calm - N/A   Scattered Clouds
10:56 AM 57.0 °F 41.0 °F 55% 30.20 in 10.0 mi Variable 6.9 mph - N/A   Clear
11:56 AM 62.1 °F 43.0 °F 50% 30.20 in 10.0 mi NW 6.9 mph - N/A   Clear
12:56 PM 66.9 °F 45.0 °F 45% 30.17 in 10.0 mi Variable 4.6 mph - N/A   Partly Cloudy
1:56 PM 64.9 °F 46.0 °F 50% 30.16 in 10.0 mi WNW 5.8 mph - N/A   Overcast
2:56 PM 69.1 °F 46.0 °F 44% 30.13 in 10.0 mi Calm Calm - N/A   Clear
3:56 PM 66.9 °F 45.0 °F 45% 30.13 in 10.0 mi Variable 5.8 mph - N/A   Clear
4:56 PM 62.1 °F 45.0 °F 53% 30.15 in 10.0 mi Variable 5.8 mph 19.6 mph N/A   Clear
5:56 PM 57.9 °F 45.0 °F 62% 30.15 in 10.0 mi NW 4.6 mph - N/A   Clear
6:56 PM 55.0 °F 45.0 °F 69% 30.18 in 10.0 mi Calm Calm - N/A   Clear
7:56 PM 48.9 °F 44.1 °F 83% 30.19 in 10.0 mi Calm Calm - N/A   Clear
8:56 PM 46.9 °F 42.1 °F 83% 30.19 in 10.0 mi Calm Calm - N/A   Clear
9:56 PM 45.0 °F 41.0 °F 86% 30.19 in 10.0 mi Calm Calm - N/A   Clear
10:56 PM 44.1 °F 39.9 °F 85% 30.19 in 10.0 mi Calm Calm - N/A   Clear
11:56 PM 43.0 °F 39.0 °F 86% 30.18 in 10.0 mi Calm Calm - N/A   Clear